Location: Central Falls
(41.8900°N, 71.3929°W)
Time: 04:05:04
(UTC+00:00)

Vanguard 2 - Pass Details

Date: 11 December 2023
Orbit: 554 x 2918 km, 32.9° (Epoch: 01 March)

Event Time Altitude Azimuth Distance (km) Brightness Sun altitude
Rises 00:54:28 0° 245° (WSW) 6,482 12.9 -40.1°
Reaches altitude 10° 00:58:40 10° 242° (WSW) 5,614 12.4 -40.8°
Enters shadow 01:15:43 59° 171° (S) 3,157 10.3 -44.0°
Maximum altitude 01:15:48 59° 170° (S) 3,155 - -44.0°
Drops below altitude 10° 01:30:30 10° 96° (E) 4,900 - -46.7°
Sets 01:33:52 0° 93° (E) 5,646 - -47.3°
